TimePST,TemperatureF,Dew PointF,Humidity,Sea Level PressureIn,VisibilityMPH,Wind Direction,Wind SpeedMPH,Gust SpeedMPH,PrecipitationIn,Events,Conditions,WindDirDegrees,DateUTC
12:56 AM,52.0,44.1,74,30.17,10.0,Calm,Calm,-,N/A,,Clear,0,2013-11-07 08:56:00
1:56 AM,53.1,43.0,69,30.17,10.0,West,5.8,-,N/A,,Clear,280,2013-11-07 09:56:00
2:56 AM,50.0,43.0,77,30.15,10.0,Calm,Calm,-,N/A,,Clear,0,2013-11-07 10:56:00
3:56 AM,48.9,42.1,77,30.14,10.0,Calm,Calm,-,N/A,,Clear,0,2013-11-07 11:56:00
4:56 AM,48.9,43.0,80,30.15,10.0,NNW,3.5,-,N/A,,Clear,330,2013-11-07 12:56:00
5:56 AM,50.0,42.1,74,30.16,10.0,West,4.6,-,N/A,,Clear,280,2013-11-07 13:56:00
6:56 AM,50.0,42.1,74,30.16,10.0,WSW,3.5,-,N/A,,Clear,240,2013-11-07 14:56:00
7:56 AM,48.9,42.1,77,30.19,10.0,Calm,Calm,-,N/A,,Clear,0,2013-11-07 15:56:00
8:56 AM,52.0,43.0,71,30.19,10.0,Calm,Calm,-,N/A,,Clear,0,2013-11-07 16:56:00
9:56 AM,59.0,43.0,55,30.17,10.0,Calm,Calm,-,N/A,,Clear,0,2013-11-07 17:56:00
10:56 AM,66.0,43.0,43,30.15,10.0,Calm,Calm,-,N/A,,Clear,0,2013-11-07 18:56:00
11:56 AM,71.1,42.1,35,30.13,10.0,Calm,Calm,-,N/A,,Clear,0,2013-11-07 19:56:00
12:56 PM,73.9,39.9,29,30.09,10.0,North,6.9,-,N/A,,Clear,10,2013-11-07 20:56:00
1:56 PM,73.0,43.0,34,30.09,10.0,NNW,13.8,-,N/A,,Clear,330,2013-11-07 21:56:00
2:56 PM,72.0,44.1,37,30.08,10.0,NW,9.2,-,N/A,,Clear,320,2013-11-07 22:56:00
3:56 PM,70.0,45.0,41,30.09,10.0,NW,10.4,-,N/A,,Clear,320,2013-11-07 23:56:00
4:56 PM,64.9,45.0,48,30.07,10.0,WNW,5.8,-,N/A,,Clear,300,2013-11-08 00:56:00
5:56 PM,63.0,48.0,58,30.09,10.0,Calm,Calm,-,N/A,,Clear,0,2013-11-08 01:56:00
6:56 PM,59.0,48.9,69,30.11,10.0,West,4.6,-,N/A,,Clear,270,2013-11-08 02:56:00
7:56 PM,55.9,48.0,75,30.10,10.0,Calm,Calm,-,N/A,,Clear,0,2013-11-08 03:56:00
8:56 PM,55.0,48.0,77,30.12,10.0,Calm,Calm,-,N/A,,Clear,0,2013-11-08 04:56:00
9:56 PM,54.0,48.0,80,30.12,10.0,Calm,Calm,-,N/A,,Clear,0,2013-11-08 05:56:00
10:56 PM,50.0,46.0,86,30.12,10.0,North,3.5,-,N/A,,Clear,350,2013-11-08 06:56:00
11:56 PM,48.9,45.0,86,30.12,10.0,Calm,Calm,-,N/A,,Clear,0,2013-11-08 07:56:00